Location: Payette
(44.0782°N, 116.9338°W)
Time: 12:54:21
(UTC-06:00)

Tiangong 2 - Visible Passes

Search period start: 23 March 2019 00:00
Search period end: 02 April 2019 00:00
Orbit: 380 x 390 km, 42.8° (Epoch: 23 March)

Date Brightness Start Highest point End Pass type
(mag) Time Alt. Az. Time Alt. Az. Time Alt. Az.
23 Mar 3.4 07:00:31 10° SW 07:00:50 10° SW 07:01:09 10° SSW visible
30 Mar 2.6 21:26:39 10° SSW 21:28:57 21° SSE 21:28:57 21° SSE visible
31 Mar 2.4 22:02:59 10° WSW 22:04:55 30° SW 22:04:55 30° SW visible
01 Apr 2.0 21:03:44 10° SW 21:06:33 31° SSE 21:08:30 16° ESE visible
01 Apr 3.8 22:39:58 10° W 22:40:44 16° WSW 22:40:44 16° WSW visible
